• în Republica Moldova
  • Lista ţărilor
  • Pe 7 zile
  • Temperatura apei
  • Hartă satelitară
  • Meteo pe hartă
  • Widget-uri
  • user-avatar
    Intrare

    Meteo pe oră la Igls

    Astăzi, 22 Februarie, Vineri

    Timp Temperatura Precipitaţii Vânt Presiune Umiditate
    00:00 +2°C° 0 mm 2 m/s 691 mmHg 83%
    01:00 +2°C° 0 mm 2 m/s 691 mmHg 82%
    02:00 +2°C° 0.1 mm 2 m/s 691 mmHg 83%
    03:00 +3°C° 0.1 mm 2 m/s 691 mmHg 84%
    04:00 +3°C° 0.1 mm 2 m/s 691 mmHg 86%
    05:00 +3°C° 0.4 mm 2 m/s 691 mmHg 87%
    06:00 +3°C° 0.4 mm 2 m/s 691 mmHg 89%
    07:00 +3°C° 0.4 mm 2 m/s 691 mmHg 91%
    08:00 +4°C° 0.7 mm 2 m/s 691 mmHg 91%
    09:00 +4°C° 0.7 mm 2 m/s 692 mmHg 92%
    10:00 +4°C° 0.7 mm 2 m/s 692 mmHg 93%
    11:00 +5°C° 0.6 mm 2 m/s 692 mmHg 94%
    12:00 +5°C° 0.6 mm 2 m/s 692 mmHg 95%
    13:00 +5°C° 0.6 mm 2 m/s 692 mmHg 96%
    14:00 +5°C° 0.1 mm 2 m/s 692 mmHg 96%
    15:00 +5°C° 0.1 mm 2 m/s 692 mmHg 96%
    16:00 +5°C° 0.1 mm 2 m/s 692 mmHg 96%
    17:00 +4°C° 0 mm 2 m/s 692 mmHg 96%
    18:00 +4°C° 0 mm 1 m/s 693 mmHg 96%
    19:00 +3°C° 0 mm 1 m/s 693 mmHg 96%
    20:00 +3°C° 0 mm 1 m/s 693 mmHg 95%
    21:00 +3°C° 0 mm 1 m/s 694 mmHg 94%
    22:00 +2°C° 0 mm 1 m/s 694 mmHg 93%
    23:00 +2°C° 0 mm 1 m/s 694 mmHg 91%

    Mâine, 23 Februarie, Sâmbătă

    Timp Temperatura Precipitaţii Vânt Presiune Umiditate
    00:00 +1°C° 0 mm 1 m/s 694 mmHg 89%
    01:00 +1°C° 0 mm 1 m/s 694 mmHg 88%
    02:00 +1°C° 0 mm 1 m/s 694 mmHg 84%
    03:00 +1°C° 0 mm 1 m/s 694 mmHg 81%
    04:00 0°C° 0 mm 1 m/s 694 mmHg 77%
    05:00 0°C° 0 mm 1 m/s 694 mmHg 72%
    06:00 0°C° 0 mm 1 m/s 694 mmHg 68%
    07:00 0°C° 0 mm 1 m/s 694 mmHg 63%
    08:00 +2°C° 0 mm 1 m/s 694 mmHg 64%
    09:00 +4°C° 0 mm 1 m/s 694 mmHg 65%
    10:00 +6°C° 0 mm 1 m/s 695 mmHg 66%
    11:00 +5°C° 0 mm 2 m/s 695 mmHg 68%
    12:00 +5°C° 0 mm 2 m/s 695 mmHg 71%
    13:00 +6°C° 0 mm 2 m/s 694 mmHg 73%
    14:00 +6°C° 0 mm 2 m/s 694 mmHg 73%
    15:00 +6°C° 0 mm 2 m/s 694 mmHg 73%
    16:00 +6°C° 0 mm 1 m/s 694 mmHg 73%
    17:00 +5°C° 0 mm 1 m/s 694 mmHg 72%
    18:00 +3°C° 0 mm 1 m/s 694 mmHg 70%
    19:00 +2°C° 0 mm 1 m/s 694 mmHg 69%
    20:00 +2°C° 0 mm 1 m/s 694 mmHg 65%
    21:00 +2°C° 0 mm 1 m/s 694 mmHg 61%
    22:00 +2°C° 0 mm 1 m/s 695 mmHg 58%
    23:00 +2°C° 0 mm 1 m/s 695 mmHg 56%

    Poimâine, 24 Februarie, Duminică

    Timp Temperatura Precipitaţii Vânt Presiune Umiditate
    00:00 +2°C° 0 mm 1 m/s 695 mmHg 55%
    01:00 +2°C° 0 mm 1 m/s 695 mmHg 53%
    02:00 +2°C° 0 mm 1 m/s 694 mmHg 53%
    03:00 +2°C° 0 mm 1 m/s 694 mmHg 52%
    04:00 +2°C° 0 mm 1 m/s 694 mmHg 52%
    05:00 +2°C° 0 mm 1 m/s 694 mmHg 52%
    06:00 +2°C° 0 mm 1 m/s 695 mmHg 53%
    07:00 +2°C° 0 mm 1 m/s 695 mmHg 53%
    08:00 +4°C° 0 mm 1 m/s 695 mmHg 58%
    09:00 +6°C° 0 mm 1 m/s 695 mmHg 62%
    10:00 +8°C° 0 mm 1 m/s 696 mmHg 67%
    11:00 +8°C° 0 mm 1 m/s 696 mmHg 69%
    12:00 +9°C° 0 mm 1 m/s 695 mmHg 71%
    13:00 +8°C° 0 mm 2 m/s 695 mmHg 73%
    14:00 +9°C° 0 mm 1 m/s 695 mmHg 75%
    15:00 +9°C° 0 mm 1 m/s 695 mmHg 77%
    16:00 +8°C° 0 mm 1 m/s 694 mmHg 79%
    17:00 +7°C° 0 mm 1 m/s 695 mmHg 80%
    18:00 +5°C° 0 mm 1 m/s 695 mmHg 80%
    19:00 +4°C° 0 mm 1 m/s 695 mmHg 80%
    20:00 +4°C° 0 mm 1 m/s 695 mmHg 79%
    21:00 +4°C° 0 mm 1 m/s 696 mmHg 78%
    22:00 +3°C° 0 mm 1 m/s 696 mmHg 77%
    23:00 +3°C° 0 mm 1 m/s 696 mmHg 76%

    25 Februarie, Luni

    Timp Temperatura Precipitaţii Vânt Presiune Umiditate
    00:00 +3°C° 0 mm 1 m/s 696 mmHg 75%
    01:00 +3°C° 0 mm 1 m/s 696 mmHg 74%
    02:00 +3°C° 0 mm 1 m/s 696 mmHg 74%
    03:00 +3°C° 0 mm 1 m/s 696 mmHg 75%
    04:00 +3°C° 0 mm 1 m/s 696 mmHg 75%
    05:00 +3°C° 0 mm 1 m/s 696 mmHg 75%
    06:00 +3°C° 0 mm 1 m/s 696 mmHg 76%
    07:00 +3°C° 0 mm 1 m/s 696 mmHg 76%
    08:00 +5°C° 0 mm 1 m/s 696 mmHg 76%
    09:00 +6°C° 0 mm 1 m/s 697 mmHg 75%
    10:00 +8°C° 0 mm 1 m/s 697 mmHg 75%
    11:00 +9°C° 0 mm 1 m/s 697 mmHg 74%
    12:00 +10°C° 0 mm 1 m/s 696 mmHg 73%
    13:00 +11°C° 0 mm 1 m/s 696 mmHg 72%
    14:00 +11°C° 0 mm 1 m/s 696 mmHg 75%
    15:00 +11°C° 0 mm 1 m/s 696 mmHg 78%
    16:00 +10°C° 0 mm 1 m/s 695 mmHg 80%
    17:00 +9°C° 0 mm 1 m/s 695 mmHg 81%
    18:00 +7°C° 0 mm 1 m/s 695 mmHg 81%
    19:00 +6°C° 0 mm 1 m/s 695 mmHg 81%
    20:00 +6°C° 0 mm 1 m/s 695 mmHg 78%
    21:00 +5°C° 0 mm 1 m/s 696 mmHg 75%
    22:00 +5°C° 0 mm 1 m/s 696 mmHg 72%
    23:00 +5°C° 0 mm 1 m/s 696 mmHg 70%

    26 Februarie, Marţi

    Timp Temperatura Precipitaţii Vânt Presiune Umiditate
    00:00 +5°C° 0 mm 1 m/s 695 mmHg 67%
    01:00 +5°C° 0 mm 1 m/s 695 mmHg 65%
    02:00 +5°C° 0 mm 1 m/s 695 mmHg 64%
    03:00 +5°C° 0 mm 1 m/s 695 mmHg 63%
    04:00 +5°C° 0 mm 1 m/s 695 mmHg 63%
    05:00 +5°C° 0 mm 1 m/s 694 mmHg 62%
    06:00 +4°C° 0 mm 1 m/s 694 mmHg 61%
    07:00 +4°C° 0 mm 1 m/s 694 mmHg 60%
    08:00 +6°C° 0 mm 1 m/s 694 mmHg 60%
    09:00 +8°C° 0 mm 1 m/s 695 mmHg 59%
    10:00 +10°C° 0 mm 1 m/s 695 mmHg 58%
    11:00 +10°C° 0 mm 1 m/s 694 mmHg 58%
    12:00 +11°C° 0 mm 1 m/s 694 mmHg 59%
    13:00 +12°C° 0 mm 1 m/s 694 mmHg 59%
    14:00 +11°C° 0 mm 1 m/s 693 mmHg 62%
    15:00 +11°C° 0 mm 1 m/s 693 mmHg 66%
    16:00 +11°C° 0 mm 1 m/s 693 mmHg 70%
    17:00 +9°C° 0 mm 1 m/s 693 mmHg 71%
    18:00 +7°C° 0 mm 1 m/s 693 mmHg 73%
    19:00 +6°C° 0 mm 1 m/s 692 mmHg 75%
    20:00 +6°C° 0 mm 1 m/s 693 mmHg 71%
    21:00 +6°C° 0 mm 1 m/s 693 mmHg 67%
    22:00 +6°C° 0 mm 1 m/s 693 mmHg 64%
    23:00 +6°C° 0 mm 1 m/s 692 mmHg 62%

    27 Februarie, Miercuri

    Timp Temperatura Precipitaţii Vânt Presiune Umiditate
    00:00 +6°C° 0 mm 1 m/s 692 mmHg 60%
    01:00 +6°C° 0 mm 1 m/s 692 mmHg 57%
    02:00 +6°C° 0 mm 1 m/s 692 mmHg 57%
    03:00 +6°C° 0 mm 1 m/s 691 mmHg 57%
    04:00 +6°C° 0 mm 1 m/s 691 mmHg 57%
    05:00 +6°C° 0 mm 1 m/s 691 mmHg 58%
    06:00 +6°C° 0 mm 1 m/s 691 mmHg 59%
    07:00 +6°C° 0 mm 1 m/s 691 mmHg 59%
    08:00 +8°C° 0 mm 1 m/s 691 mmHg 61%
    09:00 +10°C° 0 mm 1 m/s 691 mmHg 62%
    10:00 +11°C° 0 mm 1 m/s 691 mmHg 64%
    11:00 +12°C° 0 mm 1 m/s 691 mmHg 63%
    12:00 +13°C° 0 mm 1 m/s 691 mmHg 62%
    13:00 +14°C° 0 mm 1 m/s 690 mmHg 62%
    14:00 +14°C° 0 mm 1 m/s 690 mmHg 66%
    15:00 +14°C° 0 mm 1 m/s 690 mmHg 70%
    16:00 +13°C° 0 mm 1 m/s 689 mmHg 74%
    17:00 +12°C° 0 mm 1 m/s 689 mmHg 75%
    18:00 +10°C° 0 mm 1 m/s 689 mmHg 76%
    19:00 +8°C° 0 mm 2 m/s 689 mmHg 77%
    20:00 +7°C° 0 mm 2 m/s 689 mmHg 76%
    21:00 +7°C° 0 mm 2 m/s 689 mmHg 74%
    22:00 +7°C° 0 mm 2 m/s 689 mmHg 73%
    23:00 +7°C° 0 mm 2 m/s 689 mmHg 72%
    Arată mai mult